Location: Esp�n
(42.4593°N, 0.2047°W)
Time: 03:40:48
(UTC+00:00)

Cosmos 540 Rocket - Pass Details

Date: 07 June 2020
Orbit: 741 x 753 km, 74.1° (Epoch: 04 July)

Event Time Altitude Azimuth Distance (km) Brightness Sun altitude
Exits shadow 00:41:05 67° 157° (SSE) 809 3.3 -24.1°
Maximum altitude 00:41:39 74° 108° (ESE) 776 3.4 -24.0°
Drops below altitude 10° 00:46:45 10° 23° (NNE) 2,263 7.0 -23.9°
Sets 00:49:07 0° 22° (NNE) 3,190 8.1 -23.8°
